Dewpoint
13 13 13 14 15 14 14 12 8 7 9 13 14 12 11 10 10 14 17 16 12 12 13 13 13 13 13 13 12 14 13 12 14 15 13 13 15 16 17 16 16 15
14 14 14 15 14 12 13 13 11 9 8 10 13 15 15 14 11 11 14 14 12 13 13 13 13 13 13 14 12 13 13 11 13 14 13 13 13 16 17 17 16 15
14 15 14 14 14 11 10 12 10 10 10 9 10 15 16 15 13 9 10 11 11 12 13 12 13 13 13 14 13 12 12 12 12 13 12 13 13 14 16 17 17 16
13 14 14 14 13 12 10 11 11 10 12 12 11 13 15 15 15 12 9 9 10 10 12 12 12 13 13 13 13 12 12 12 12 12 11 12 13 12 14 17 17 17
13 13 14 13 14 14 12 12 13 11 12 14 13 13 13 13 15 14 11 9 9 10 12 12 10 12 12 13 13 12 12 12 12 12 11 11 11 10 11 15 16 16
13 12 13 13 13 14 13 11 13 13 13 14 15 15 13 10 12 14 13 10 9 11 13 13 11 10 11 12 12 13 12 13 14 13 11 10 9 8 11 13 13 13
13 12 12 13 13 13 12 11 11 12 13 14 14 15 15 11 8 11 13 11 11 12 14 15 14 12 10 11 11 12 12 12 15 15 12 10 9 8 11 14 13 11
13 13 12 12 14 14 13 12 11 11 12 14 14 14 14 13 10 8 10 11 12 14 15 16 16 13 11 12 11 11 12 11 12 13 11 10 10 8 8 12 12 11
12 13 12 12 14 15 14 14 13 11 11 12 14 14 13 13 12 10 9 8 10 14 14 15 15 12 11 13 12 10 11 11 11 11 9 9 10 8 6 7 9 10
12 13 13 13 14 15 14 16 15 13 11 10 12 15 14 12 12 12 11 8 7 11 12 11 13 11 8 11 11 9 10 11 11 11 9 8 7 8 8 7 8 10
12 14 15 14 14 16 15 16 16 16 14 10 9 14 16 14 11 12 12 9 6 8 9 8 9 9 8 10 12 10 8 9 10 10 8 7 6 7 8 8 10 11
12 13 15 15 14 16 17 16 16 17 16 13 9 12 16 16 13 10 10 9 6 6 8 7 7 7 7 9 12 13 10 6 9 9 7 5 5 5 6 7 8 9
11 12 14 15 14 15 17 17 16 16 16 15 12 11 14 17 15 12 8 7 6 6 6 6 6 6 7 7 9 13 13 9 8 10 9 6 6 5 6 9 10 10
10 10 13 15 15 14 16 17 17 16 16 16 15 13 13 15 16 15 11 7 5 5 5 5 5 5 7 6 6 10 12 10 8 9 10 9 7 6 8 12 14 14
10 10 12 15 16 16 16 17 17 16 16 17 17 15 14 15 15 16 15 12 6 4 5 5 5 5 5 6 5 6 9 10 7 5 7 10 9 8 10 12 13 14
11 11 11 14 16 16 15 16 17 17 16 17 17 16 15 14 15 16 17 16 12 6 4 5 6 6 4 5 5 3 4 8 7 3 3 8 9 9 11 13 13 12
13 11 11 13 15 15 14 14 17 17 17 17 18 17 15 14 15 15 16 17 16 13 8 5 6 7 5 3 3 3 3 3 5 4 1 3 5 5 7 10 12 13
14 12 11 11 13 13 12 12 14 17 17 17 18 17 15 13 14 15 16 16 17 17 15 11 10 8 5 2 2 2 3 3 2 4 2 -0 1 3 2 3 7 10
15 12 11 10 11 11 11 11 12 15 17 17 18 17 15 13 12 14 16 16 16 18 18 17 16 13 6 1 3 2 2 3 2 5 8 6 2 1 1 1 1 4
17 14 11 11 11 10 10 10 10 12 14 16 17 17 14 13 14 15 15 14 15 17 18 18 18 17 12 4 2 3 2 2 3 7 11 13 12 8 4 3 2 1
18 17 13 11 11 10 10 10 10 11 13 14 16 16 14 12 14 15 15 13 13 15 18 18 17 17 16 10 4 3 3 2 2 5 9 12 13 11 8 5 3 2
19 18 16 12 11 11 10 11 11 12 12 13 14 16 16 14 13 14 14 13 12 13 16 17 17 17 16 13 7 4 4 4 4 4 5 6 7 7 5 4 3 2
18 18 16 14 12 12 11 11 11 11 12 12 13 15 17 17 15 14 14 14 13 13 13 15 16 16 15 13 10 7 6 6 5 4 4 4 3 3 3 2 2 2
17 17 15 14 13 12 11 11 11 11 11 12 12 13 16 18 17 16 16 15 14 13 12 13 14 15 14 12 11 10 8 9 8 7 7 6 4 4 3 3 3 1
17 17 15 14 13 12 12 12 11 11 11 11 11 12 14 17 18 18 18 17 16 14 14 13 13 14 14 13 11 11 10 10 10 9 9 8 6 5 5 4 3 2
17 16 14 13 12 12 12 13 12 12 12 11 11 12 14 16 17 18 18 18 17 17 16 15 14 14 14 13 12 11 11 11 11 12 11 10 8 6 6 5 4 2
Wind_Speed
33 31 29 25 25 27 27 28 29 27 25 22 20 20 20 20 19 18 17 17 16 15 14 13 12 12 11 11 10 9 8 7 7 7 6 6 6 5 5 5 4 5
33 31 29 26 26 28 28 28 28 28 27 25 21 18 18 19 20 19 19 19 17 15 15 14 14 13 12 12 11 10 9 8 8 8 7 6 7 6 6 6 6 5
34 31 30 29 28 29 29 28 29 28 27 26 24 20 18 19 20 20 20 20 19 17 16 16 15 14 14 13 12 11 11 10 9 8 8 8 7 8 7 7 7 7
36 33 31 30 28 29 29 28 29 29 26 25 24 23 20 20 19 20 20 20 20 19 17 17 17 15 15 14 13 12 11 11 10 10 10 9 9 9 8 8 8 8
36 34 32 30 29 29 29 29 28 28 27 24 23 23 23 22 20 20 21 21 21 21 19 18 18 17 16 15 14 14 13 12 12 12 11 11 11 10 10 10 10 10
37 34 33 32 31 30 30 29 28 27 26 25 23 23 24 25 24 21 21 22 22 21 20 19 19 18 17 17 16 15 15 14 13 13 12 12 12 12 11 11 11 11
39 36 34 33 32 31 31 30 29 28 27 25 24 24 23 25 26 24 22 22 22 21 20 19 19 19 18 18 17 16 16 15 14 14 13 12 12 12 12 12 11 11
41 38 36 34 32 31 32 30 29 30 28 26 25 25 25 24 25 26 25 24 22 21 20 20 20 21 20 19 18 17 17 16 16 16 16 14 14 13 13 13 13 12
42 39 37 36 34 32 32 30 30 31 30 29 27 26 26 26 25 25 26 26 24 22 23 22 22 23 22 20 20 19 18 18 17 18 18 17 17 16 14 14 13 13
42 40 38 37 35 34 32 30 30 30 30 31 29 26 26 28 27 26 26 27 27 26 26 25 24 24 23 21 22 22 20 19 19 19 19 18 18 17 15 14 14 13
43 41 38 38 36 34 33 31 29 28 29 31 31 28 25 27 28 28 27 29 29 28 28 28 27 26 24 22 22 23 23 22 21 21 21 20 19 17 16 16 15 15
45 42 39 39 38 35 32 32 30 28 28 30 31 30 27 26 28 30 30 30 30 30 30 29 28 27 26 24 22 22 23 22 22 22 22 22 21 20 19 18 18 18
46 45 42 40 39 37 32 31 30 29 28 28 30 30 29 27 27 29 31 32 31 30 30 30 29 28 27 26 24 23 23 22 22 22 22 22 21 21 19 18 18 19
47 45 43 40 39 38 34 30 30 30 29 28 29 30 30 28 27 27 30 32 32 31 31 30 30 29 29 28 26 25 24 24 23 22 22 22 22 21 20 19 18 18
46 45 44 41 38 38 36 33 31 31 30 29 29 30 30 29 27 26 27 30 32 32 31 31 31 31 30 29 28 27 26 25 25 24 23 23 22 22 21 20 20 19
45 45 44 41 39 39 38 36 33 31 31 31 30 30 30 29 29 27 26 27 30 32 32 32 32 32 31 30 28 28 27 26 27 27 25 24 24 23 22 21 21 20
45 45 44 43 41 40 41 38 35 33 33 32 31 31 31 31 30 29 27 26 27 29 31 32 33 33 32 30 28 27 26 26 27 28 27 26 26 26 25 23 22 21
44 45 45 45 44 42 42 41 38 36 34 34 33 33 33 33 32 31 30 28 25 26 28 30 32 33 33 30 28 27 26 26 27 27 28 28 27 27 27 27 25 23
44 45 44 45 45 44 43 42 41 39 38 36 35 35 35 34 33 32 32 30 28 25 26 27 27 30 33 32 29 27 26 26 26 27 27 27 28 28 28 28 28 26
41 44 45 44 45 45 44 42 42 42 41 39 37 36 36 36 34 32 32 33 31 28 26 26 25 27 31 31 29 28 27 26 27 26 25 25 25 27 28 29 29 28
33 38 44 45 45 45 45 43 43 43 42 41 38 36 37 38 36 34 34 35 35 31 28 27 26 27 29 30 30 28 28 28 28 29 28 27 27 28 29 30 30 30
31 32 40 45 45 45 46 45 43 43 43 42 39 35 35 37 37 36 35 36 36 34 32 29 28 28 30 32 31 29 29 29 31 32 33 32 32 32 32 32 32 32
35 34 38 43 44 45 46 46 45 44 43 43 42 37 33 34 36 36 36 36 36 35 34 32 31 31 33 34 34 32 31 30 32 33 34 35 35 35 35 35 35 35
40 39 41 42 43 44 45 46 45 45 44 43 43 40 34 31 31 33 34 35 35 36 35 34 32 32 34 35 35 34 32 31 32 33 34 35 36 36 37 37 37 37
40 41 41 40 41 43 44 45 45 44 43 43 42 42 37 31 28 29 30 31 33 34 34 34 33 32 34 35 35 34 33 31 31 32 33 34 35 36 37 38 38 39
38 39 40 39 39 41 42 42 43 42 42 42 41 40 38 33 29 28 27 28 29 29 30 32 33 33 34 35 35 34 32 30 30 31 32 33 33 35 36 37 38 39
Wind_Direction
223 220 217 212 214 216 217 224 230 231 228 222 223 229 230 229 226 216 212 220 220 216 218 216 213 215 212 214 215 214 223 222 218 226 219 206 206 203 214 216 210 213
220 217 214 210 211 215 216 219 225 228 230 226 219 218 221 224 228 225 220 222 221 215 215 214 213 216 214 214 216 216 224 227 221 228 228 218 216 215 218 222 222 229
220 215 212 211 213 217 218 218 222 225 228 230 223 212 212 218 225 229 228 227 226 219 214 214 213 215 215 214 215 215 222 228 224 229 233 225 222 223 222 227 231 239
219 214 211 212 213 217 219 218 222 224 223 225 225 215 209 213 219 227 228 226 228 226 219 217 215 215 216 213 213 215 218 226 226 228 235 233 228 227 225 226 227 231
218 214 211 211 210 213 218 217 218 222 221 218 220 216 212 213 213 219 226 224 224 225 224 224 221 217 217 215 213 215 218 224 229 229 232 235 238 235 230 229 228 225
217 214 211 211 211 211 216 218 216 217 218 215 214 213 214 218 215 215 222 224 222 221 220 223 225 222 219 218 215 216 221 224 229 233 235 238 243 238 229 230 234 232
217 216 213 211 211 213 215 218 217 216 216 214 213 212 212 218 220 217 220 224 222 218 215 215 221 224 221 221 220 219 223 225 224 232 238 240 244 239 230 230 235 237
218 217 215 212 211 213 215 217 218 218 215 212 212 214 214 216 220 220 219 221 220 215 213 211 214 222 222 222 225 224 226 229 226 230 238 240 243 244 236 232 235 240
217 216 217 216 212 213 216 215 218 220 217 214 212 213 217 218 219 221 221 222 219 215 216 214 214 222 222 220 226 228 227 230 231 234 238 240 242 248 248 242 240 242
215 215 216 216 213 213 214 212 214 219 219 218 215 211 216 220 219 220 221 223 221 218 221 222 220 226 227 222 227 232 230 229 231 235 239 241 244 248 251 251 246 244
214 213 212 214 213 210 211 211 209 212 217 219 217 209 209 217 220 219 220 224 223 221 224 227 226 229 230 226 226 232 234 232 231 235 240 243 246 247 247 249 248 247
214 212 210 212 212 208 207 210 206 205 211 217 218 211 205 210 218 220 221 224 226 224 226 230 230 231 232 229 226 229 236 237 234 236 241 244 246 248 250 250 249 248
214 213 210 210 213 209 204 205 204 202 206 212 216 213 206 205 213 219 222 224 226 227 228 231 232 233 234 233 228 225 232 239 237 235 240 244 245 248 250 249 249 249
215 214 211 208 211 211 204 201 203 202 202 206 211 213 209 206 208 215 221 224 226 228 229 231 233 234 234 234 232 227 228 236 239 236 237 241 244 245 245 242 242 245
213 213 211 207 209 210 206 201 201 202 201 203 208 211 210 207 206 209 216 222 226 228 228 230 233 234 234 234 234 232 229 233 240 241 239 238 241 243 241 240 240 240
212 212 210 207 206 209 208 202 200 201 201 201 206 210 210 208 207 206 210 217 224 227 227 229 231 233 235 235 235 235 234 234 238 243 242 238 239 241 239 239 242 244
211 211 210 208 206 210 211 206 201 201 203 202 204 209 212 211 208 206 207 212 218 223 227 229 230 232 235 236 235 235 237 237 237 241 244 242 242 243 242 240 242 246
210 210 210 209 209 212 214 212 206 203 203 203 203 208 214 215 212 210 208 209 212 217 222 227 229 232 236 238 237 235 236 238 237 238 242 244 245 245 246 247 247 246
210 211 210 210 211 213 215 215 211 207 206 206 205 210 216 218 217 215 212 210 210 212 217 221 224 231 236 238 237 236 234 233 234 235 237 241 245 247 248 250 251 251
208 211 212 211 212 214 215 216 214 212 213 212 211 213 218 221 219 218 217 217 214 212 213 216 219 228 237 239 236 234 232 229 230 230 230 233 239 245 248 250 251 253
204 209 212 213 212 213 215 216 216 215 216 217 216 217 222 225 223 221 223 225 223 217 214 216 219 225 235 240 237 232 230 228 227 227 229 230 233 239 245 249 251 252
201 205 211 214 213 213 215 216 217 217 218 219 219 218 221 227 227 226 227 229 230 227 223 221 223 226 232 240 242 236 231 228 228 228 230 233 236 240 244 247 250 252
206 207 211 215 215 214 215 216 217 218 219 221 221 219 218 224 228 229 230 232 233 233 232 230 229 232 237 241 244 243 238 234 232 231 232 234 237 240 244 246 249 251
212 213 215 217 216 215 216 217 218 219 220 222 223 222 218 219 225 228 230 232 235 237 238 237 236 237 241 244 245 246 245 242 240 238 237 237 238 240 243 246 249 251
213 215 218 218 218 217 217 217 219 220 221 223 225 225 223 219 220 224 227 231 235 237 240 242 240 238 242 245 246 246 246 245 244 244 242 241 241 242 244 246 248 251
212 215 218 219 219 219 218 218 219 219 221 224 225 227 227 223 221 222 225 228 231 232 234 239 240 239 240 244 247 247 246 245 243 243 243 243 243 244 245 247 249 250
Height
1548 1550 1553 1556 1558 1561 1563 1565 1567 1569 1571 1573 1574 1576 1577 1579 1581 1582 1583 1584 1585 1586 1588 1589 1590 1591 1591 1592 1593 1594 1594 1595 1595 1596 1596 1596 1596 1597 1598 1598 1599 1599
1545 1547 1550 1552 1555 1557 1560 1562 1564 1566 1568 1570 1573 1574 1576 1577 1578 1580 1582 1582 1584 1585 1586 1587 1588 1589 1590 1591 1592 1593 1593 1594 1595 1595 1596 1596 1596 1596 1597 1598 1598 1598
1541 1544 1547 1549 1552 1554 1557 1559 1562 1564 1566 1568 1570 1573 1574 1575 1576 1578 1580 1581 1582 1583 1584 1586 1587 1588 1589 1590 1591 1592 1592 1593 1594 1594 1595 1595 1595 1596 1596 1597 1598 1598
1538 1541 1543 1546 1549 1552 1554 1557 1559 1561 1564 1566 1568 1570 1572 1574 1575 1576 1578 1579 1580 1582 1583 1584 1585 1586 1588 1589 1590 1591 1591 1592 1593 1593 1594 1594 1595 1595 1595 1596 1597 1598
1535 1538 1540 1544 1546 1549 1551 1554 1556 1558 1561 1563 1565 1568 1569 1571 1573 1574 1575 1577 1578 1580 1581 1582 1584 1585 1586 1587 1588 1589 1590 1591 1591 1592 1593 1593 1594 1594 1595 1595 1596 1596
1531 1534 1538 1540 1543 1546 1548 1551 1553 1556 1558 1561 1563 1565 1567 1568 1570 1572 1573 1575 1576 1578 1580 1581 1582 1583 1584 1585 1587 1588 1589 1590 1590 1591 1591 1592 1593 1593 1594 1594 1594 1595
1528 1531 1534 1538 1540 1543 1545 1548 1551 1553 1556 1558 1561 1563 1564 1566 1568 1570 1571 1573 1575 1576 1578 1579 1580 1581 1583 1584 1585 1586 1587 1588 1589 1589 1590 1591 1591 1592 1592 1593 1593 1594
1524 1528 1531 1535 1538 1540 1542 1545 1548 1550 1553 1555 1558 1560 1562 1563 1565 1567 1569 1571 1572 1574 1576 1577 1578 1579 1581 1582 1583 1584 1585 1586 1587 1588 1588 1589 1590 1590 1591 1591 1592 1592
1521 1525 1528 1531 1534 1537 1540 1542 1545 1547 1549 1552 1555 1557 1559 1561 1563 1565 1567 1568 1570 1572 1573 1575 1576 1577 1579 1580 1581 1582 1583 1585 1585 1586 1587 1587 1588 1589 1589 1590 1590 1590
1518 1521 1525 1528 1531 1534 1536 1539 1542 1544 1546 1549 1552 1554 1556 1558 1560 1562 1564 1565 1568 1569 1570 1572 1574 1575 1577 1578 1579 1580 1581 1583 1583 1584 1585 1585 1586 1587 1588 1588 1588 1589
1514 1518 1521 1524 1527 1530 1533 1536 1539 1541 1543 1545 1548 1551 1553 1555 1557 1559 1561 1562 1564 1566 1568 1569 1571 1573 1574 1576 1577 1578 1579 1580 1581 1582 1582 1583 1584 1585 1586 1586 1586 1587
1510 1514 1517 1519 1523 1527 1530 1533 1536 1539 1541 1542 1545 1548 1551 1552 1553 1556 1558 1559 1561 1564 1565 1567 1569 1570 1572 1574 1575 1576 1577 1578 1579 1580 1580 1581 1582 1583 1584 1584 1584 1585
1505 1509 1512 1516 1519 1523 1527 1530 1533 1536 1538 1540 1542 1544 1547 1550 1551 1552 1554 1556 1558 1561 1563 1564 1566 1568 1569 1571 1573 1574 1575 1576 1577 1578 1578 1579 1580 1581 1582 1582 1582 1582
1501 1505 1509 1513 1516 1519 1524 1527 1530 1533 1535 1537 1539 1541 1544 1547 1548 1550 1551 1553 1555 1557 1560 1561 1563 1564 1566 1567 1570 1571 1572 1573 1574 1575 1576 1577 1578 1578 1579 1580 1581 1581
1497 1502 1506 1510 1513 1516 1520 1524 1527 1530 1532 1534 1536 1538 1541 1543 1546 1548 1549 1550 1552 1554 1556 1558 1559 1561 1562 1564 1566 1568 1569 1570 1571 1572 1574 1574 1575 1576 1577 1578 1579 1579
1494 1499 1503 1507 1510 1512 1516 1520 1523 1526 1529 1531 1532 1534 1537 1540 1543 1545 1546 1547 1549 1550 1553 1554 1556 1557 1558 1560 1563 1565 1566 1568 1568 1569 1571 1572 1573 1574 1575 1576 1576 1577
1491 1495 1499 1503 1506 1509 1512 1516 1520 1523 1525 1527 1529 1531 1534 1536 1539 1542 1544 1545 1546 1547 1549 1551 1552 1553 1555 1557 1560 1562 1563 1565 1566 1566 1567 1569 1570 1570 1572 1573 1574 1574
1487 1491 1495 1499 1502 1505 1508 1512 1516 1519 1521 1524 1526 1527 1530 1532 1535 1537 1540 1543 1544 1545 1546 1548 1549 1550 1551 1554 1556 1559 1560 1562 1563 1564 1564 1565 1567 1567 1569 1570 1571 1572
1484 1488 1491 1495 1498 1501 1505 1508 1512 1515 1517 1520 1522 1524 1526 1529 1531 1534 1536 1539 1541 1543 1544 1545 1546 1547 1548 1550 1553 1555 1557 1559 1560 1561 1562 1562 1563 1564 1565 1566 1567 1568
1482 1484 1488 1491 1495 1498 1501 1504 1508 1511 1514 1516 1519 1521 1523 1525 1528 1530 1532 1534 1537 1539 1541 1542 1544 1544 1544 1547 1550 1552 1554 1556 1557 1559 1559 1560 1561 1561 1562 1563 1564 1565
1479 1482 1485 1488 1491 1494 1497 1500 1504 1508 1511 1514 1516 1519 1520 1522 1525 1527 1528 1530 1533 1535 1537 1539 1541 1542 1542 1543 1546 1549 1551 1553 1554 1555 1556 1557 1558 1558 1559 1560 1561 1561
1477 1479 1482 1485 1488 1491 1494 1497 1501 1504 1507 1510 1513 1516 1518 1520 1522 1524 1525 1527 1529 1532 1534 1535 1537 1539 1539 1540 1542 1545 1548 1549 1551 1552 1552 1553 1554 1555 1555 1556 1557 1558
1473 1476 1478 1481 1485 1488 1490 1494 1497 1500 1504 1507 1510 1513 1515 1517 1519 1521 1522 1524 1526 1528 1530 1532 1534 1535 1536 1537 1539 1541 1544 1546 1547 1548 1549 1549 1551 1551 1552 1553 1553 1554
1470 1472 1475 1478 1481 1484 1487 1490 1493 1497 1500 1503 1506 1509 1512 1515 1516 1518 1520 1521 1522 1524 1526 1528 1530 1531 1532 1534 1535 1537 1540 1542 1543 1544 1545 1546 1547 1548 1549 1549 1549 1550
1467 1469 1471 1474 1477 1481 1484 1487 1490 1494 1497 1500 1503 1506 1509 1512 1514 1515 1517 1518 1520 1521 1522 1524 1527 1528 1528 1530 1532 1534 1536 1538 1539 1540 1541 1542 1544 1545 1545 1545 1546 1546
1464 1466 1468 1471 1475 1478 1481 1484 1487 1491 1494 1497 1500 1503 1506 1509 1511 1513 1514 1516 1517 1519 1520 1521 1522 1524 1525 1526 1528 1530 1532 1534 1536 1536 1537 1538 1540 1541 1541 1541 1542 1543